Theta_e
314 319 316 322 327 324 326 327 330 335 334 334 334 338 338 338 339 341 338 333 330 326 327 326 322 321 320 318 318 319 319 318 318 317 316 316 316 316 316 315 314 314 315 314 314 312 310 310 310
329 317 320 324 325 326 327 329 331 334 336 333 335 337 337 340 338 338 335 327 327 327 327 326 323 322 321 318 318 318 319 318 318 318 318 317 317 317 316 317 317 316 316 316 316 316 316 315 313
323 318 321 324 325 325 329 329 333 333 332 332 334 335 336 339 339 338 334 327 327 327 327 326 325 323 322 319 318 319 318 318 318 318 318 318 318 318 318 318 318 318 317 318 318 318 319 320 321
320 320 320 325 325 325 326 332 331 332 332 333 333 335 335 336 339 337 329 328 328 327 327 327 325 324 323 321 319 319 319 318 318 318 318 318 318 318 319 319 319 319 318 318 319 319 320 321 322
321 321 322 323 323 325 327 326 327 330 330 333 335 336 335 337 338 336 329 328 328 327 327 327 326 324 323 321 320 318 319 319 318 318 318 318 318 319 319 319 320 320 319 319 319 319 320 321 322
322 321 322 322 323 324 325 324 325 328 329 332 335 336 336 338 338 334 330 330 336 328 327 327 326 325 323 321 321 319 318 318 318 318 318 318 318 319 319 319 320 320 320 320 319 319 319 320 322
325 323 322 322 322 323 324 323 324 326 331 333 336 337 336 337 338 337 336 337 337 334 328 327 326 326 324 322 321 320 319 318 318 317 317 317 318 318 319 319 320 320 320 321 320 320 320 321 322
323 326 325 324 323 322 322 325 324 326 332 332 334 337 337 337 340 340 338 338 338 337 334 330 328 327 325 323 322 321 320 319 318 317 317 317 317 318 319 319 320 320 321 321 321 321 321 321 322
323 326 327 325 324 322 322 323 324 328 331 332 332 334 334 339 340 339 340 339 339 340 334 332 331 330 327 324 324 322 320 319 318 317 316 316 316 317 318 318 319 320 321 322 322 322 323 323 323
325 328 328 326 325 321 321 323 324 328 331 332 331 331 331 337 338 336 336 336 337 338 341 338 333 332 332 330 329 327 323 321 319 318 317 316 316 319 319 319 319 320 320 321 322 323 324 325 335
326 328 328 327 325 322 321 322 323 325 330 332 332 330 329 329 331 331 331 331 332 332 334 341 334 333 334 333 332 331 330 326 322 319 318 318 317 324 321 329 320 320 320 321 323 324 329 336 336
326 327 327 326 326 321 321 322 323 323 324 329 329 329 328 329 330 331 331 331 331 331 332 336 327 326 327 332 333 334 334 334 332 329 323 319 319 321 328 330 332 322 330 326 335 336 337 337 336
323 324 325 326 326 325 322 322 324 324 323 323 324 324 327 329 329 329 329 329 330 331 331 333 329 326 326 326 327 328 331 334 336 338 334 327 331 329 333 330 330 331 331 330 334 336 337 334 337
319 321 323 323 324 325 326 326 326 326 326 327 328 329 328 328 328 328 329 329 329 329 329 328 328 326 326 326 326 326 326 328 334 340 338 334 334 333 334 332 330 330 330 330 332 335 337 336 336
316 318 319 322 323 324 325 328 328 327 328 329 329 329 328 328 328 328 329 329 330 329 329 327 327 326 326 325 324 325 325 326 332 334 339 337 336 334 333 333 331 330 330 321 327 334 335 334 335
315 317 319 320 321 322 323 327 329 327 327 328 328 328 328 328 328 328 328 329 330 329 326 326 326 325 325 324 325 325 325 326 333 336 340 338 337 337 336 334 332 331 329 324 329 333 326 333 335
317 317 318 319 320 321 322 326 326 325 326 327 327 327 327 327 327 328 329 329 329 326 324 325 325 325 325 324 324 325 325 325 330 338 340 340 338 338 338 336 333 331 330 330 330 330 331 334 335
315 317 317 318 320 320 321 323 323 324 325 326 326 326 326 327 328 327 327 327 328 328 321 323 324 324 324 323 324 325 327 328 329 338 340 339 338 337 335 336 334 332 331 327 328 329 334 335 334
313 316 317 318 318 319 321 322 322 323 323 324 325 325 326 326 325 325 325 325 325 326 321 319 320 322 323 322 323 329 334 336 336 339 338 338 336 335 335 338 336 332 331 329 328 331 335 335 333
312 314 317 318 317 319 320 321 322 322 323 323 323 324 324 324 324 324 324 324 325 325 322 320 320 321 322 322 323 332 335 340 341 341 337 336 336 336 337 338 337 334 332 330 330 334 335 334 333
311 312 314 316 317 319 320 321 322 322 322 321 322 322 322 322 322 323 323 324 324 325 325 321 322 321 322 321 324 325 330 333 337 333 335 336 337 338 338 337 337 332 332 333 334 334 333 334 332
310 311 312 313 316 318 319 321 321 322 322 322 322 321 321 321 322 322 322 323 323 325 326 326 320 321 321 320 323 327 335 338 339 338 334 336 338 339 338 335 335 332 334 338 336 333 334 332 332
310 311 311 313 315 316 317 319 320 321 322 322 323 321 321 321 321 321 321 322 322 323 325 325 319 318 319 319 322 328 337 343 342 339 335 338 340 338 337 337 335 336 339 334 335 333 330 332 330
310 310 310 313 315 318 318 319 320 320 321 321 322 320 320 320 319 320 320 321 321 323 324 322 318 318 319 321 324 328 342 344 344 343 338 340 340 338 338 338 337 335 334 330 331 332 331 331 330
310 309 310 311 315 316 316 317 318 320 320 320 320 319 320 320 321 322 323 322 323 325 327 335 328 323 323 324 326 333 340 338 345 342 344 344 341 341 337 337 336 335 330 333 333 331 332 330 329
310 310 309 311 313 313 314 316 317 318 319 318 318 319 320 321 322 324 326 324 323 326 335 338 335 340 336 340 341 344 342 346 346 346 345 344 342 341 337 337 335 334 334 333 331 331 330 330 329
311 312 311 311 311 315 314 316 317 318 318 319 320 322 325 327 330 330 330 326 332 338 338 341 343 343 344 345 344 344 347 347 345 342 341 340 339 338 336 335 334 333 333 332 331 330 330 331 328
312 311 314 311 313 313 314 315 317 318 317 318 320 323 323 332 334 333 333 334 340 340 345 345 345 345 345 345 345 345 345 343 341 339 338 337 337 336 336 335 334 333 332 331 328 331 331 329 326
311 313 314 314 311 311 314 315 317 318 319 320 320 320 320 330 335 337 338 341 343 345 345 346 346 345 345 345 344 344 343 341 338 338 338 336 335 335 335 333 331 331 331 332 330 329 330 329 327
310 313 313 319 314 313 315 318 320 320 319 320 320 319 320 331 336 336 338 340 344 344 344 345 344 344 344 343 343 342 339 338 338 338 337 335 335 333 331 330 330 331 332 332 332 331 331 328 326
Wind_Speed
8 6 6 5 7 7 14 8 4 8 6 4 2 6 16 14 16 2 8 21 18 16 17 21 20 19 18 18 17 17 17 16 16 14 13 13 12 10 9 8 7 6 3 1 0 0 1 2 3
7 7 6 5 8 11 12 10 12 8 6 3 5 10 10 9 12 2 14 23 18 16 16 20 22 20 19 19 18 18 17 17 16 16 14 13 11 11 9 8 7 7 6 4 2 1 0 1 2
8 8 9 5 12 14 8 9 9 6 4 5 4 12 8 13 11 3 14 23 19 17 17 19 20 20 18 19 20 18 18 18 17 17 16 14 13 11 10 9 7 7 6 5 4 2 1 1 2
6 7 8 10 17 17 11 4 3 3 5 4 10 7 7 8 5 8 23 22 19 17 17 17 20 19 19 19 18 19 18 18 18 18 17 16 15 14 12 10 9 8 6 6 5 4 3 3 3
7 7 11 15 21 19 10 14 10 11 11 10 11 9 6 6 12 18 23 21 20 19 18 18 21 20 20 20 20 20 19 18 18 18 18 17 16 15 13 11 10 8 7 6 4 4 3 3 4
10 10 10 17 19 18 16 18 14 14 13 13 12 12 9 9 15 23 23 21 16 17 19 20 21 22 23 22 22 21 21 21 20 20 20 19 18 16 14 13 11 9 8 5 4 4 4 3 4
17 11 17 20 17 16 18 20 16 15 10 14 13 15 10 11 16 20 20 18 15 16 18 21 22 25 25 25 24 23 22 23 22 22 22 21 20 18 17 15 13 11 8 6 5 5 4 3 4
17 11 22 20 17 22 15 12 17 14 13 1 9 9 13 17 16 18 19 18 16 15 16 18 20 22 27 28 28 26 26 26 25 25 24 24 23 21 20 18 16 13 10 8 7 6 5 5 4
16 11 17 23 20 13 7 15 17 10 11 8 5 1 6 13 14 16 16 16 15 14 17 17 18 20 23 27 28 29 30 29 29 29 28 27 26 26 24 23 18 15 12 10 9 8 7 7 5
18 17 27 21 14 11 19 17 12 8 19 14 8 8 8 11 12 13 14 17 18 16 15 17 20 20 22 24 25 28 32 33 34 34 34 32 31 28 27 25 22 18 15 13 12 11 10 9 6
25 26 22 25 18 15 20 21 18 16 18 21 16 9 3 3 7 9 10 12 12 10 13 17 19 19 22 24 25 26 27 31 35 37 37 36 34 29 29 22 25 23 20 17 15 13 12 10 9
26 30 32 30 19 13 20 25 26 26 24 23 12 11 13 13 13 14 14 14 13 10 9 11 12 15 18 22 25 25 27 28 29 33 38 38 38 36 30 24 21 25 20 19 17 15 14 14 13
28 29 29 30 28 23 20 27 26 30 30 29 28 25 23 22 22 21 18 18 16 15 12 10 13 17 19 20 21 24 28 29 29 28 32 36 32 35 28 27 24 22 20 19 18 16 16 16 13
19 30 35 36 28 25 27 30 25 36 31 32 28 29 30 26 24 21 20 20 19 19 22 22 20 19 19 17 19 23 27 30 30 26 27 35 32 31 27 29 28 25 23 21 18 17 15 13 13
29 26 24 26 33 29 20 27 35 40 33 29 28 29 30 30 27 27 25 23 22 21 20 27 24 19 21 22 26 27 29 30 28 28 29 32 33 33 31 27 28 26 23 25 22 18 15 12 15
17 22 24 33 25 27 26 29 38 39 39 32 34 34 33 33 30 29 27 24 21 19 17 20 19 22 23 27 26 28 29 29 27 25 24 28 31 30 31 27 26 25 25 24 21 17 15 13 16
20 24 30 30 27 24 19 35 37 44 39 33 34 35 34 35 32 25 22 21 19 20 24 23 23 25 29 27 28 29 29 30 27 23 22 24 27 26 26 23 24 29 23 23 20 17 16 15 18
24 26 27 28 21 25 29 35 29 33 16 30 38 39 36 34 29 25 24 21 21 22 28 30 32 33 32 27 28 26 26 28 25 22 22 23 22 23 21 20 22 27 24 25 22 18 16 16 13
25 28 22 19 22 26 26 34 31 31 37 34 32 29 29 31 31 29 27 26 26 26 33 32 33 31 29 25 21 19 22 22 21 20 22 22 20 17 18 18 22 23 22 22 22 19 15 14 12
22 26 31 20 15 20 25 32 29 27 30 36 36 39 37 36 35 33 32 29 27 29 31 31 32 33 26 22 21 18 16 15 16 16 21 18 16 16 19 20 18 21 19 21 20 17 15 11 11
23 25 25 27 20 17 21 27 27 22 27 31 33 34 35 37 37 35 33 31 29 30 30 25 26 28 23 21 19 19 16 17 18 18 16 16 16 18 18 19 17 19 19 17 19 18 14 10 13
21 22 26 24 22 23 21 20 23 25 29 29 33 35 37 37 37 36 36 35 33 29 23 22 22 21 25 23 21 19 16 14 14 16 15 15 16 16 18 17 16 18 17 18 16 14 13 13 11
20 18 24 23 23 25 30 19 19 19 21 19 18 27 33 35 34 36 37 34 30 27 26 27 32 30 27 26 21 19 16 12 11 12 15 17 17 18 16 17 18 19 17 16 13 13 13 11 11
14 17 20 19 14 18 24 22 20 21 26 22 19 25 28 29 28 27 29 27 24 20 21 24 27 27 27 24 20 17 17 16 16 16 19 19 18 18 19 19 18 18 16 14 14 13 12 10 11
16 16 11 15 18 19 21 20 19 7 1 1 8 18 10 14 17 17 16 16 18 15 16 16 18 20 21 19 17 17 17 17 17 18 18 20 18 18 19 19 17 14 16 14 12 11 10 11 11
21 19 15 20 17 20 26 23 16 16 15 18 14 12 12 13 14 14 16 14 15 15 14 15 14 15 16 16 17 17 18 17 18 19 20 18 17 17 19 16 15 14 13 11 10 9 10 11 11
20 20 21 24 19 16 18 26 26 19 11 9 3 6 9 12 14 17 14 11 11 11 13 11 13 15 17 18 19 20 19 20 21 22 19 19 19 18 17 16 15 12 10 10 11 11 11 12 12
8 13 4 15 13 20 17 22 15 24 27 15 0 9 16 18 14 7 4 10 10 11 13 15 17 19 20 21 21 21 22 21 23 22 20 20 18 17 16 13 11 10 10 11 11 11 12 13 14
5 9 12 14 17 13 12 16 19 14 11 8 6 14 18 19 12 5 2 8 14 16 18 19 20 21 21 22 22 22 21 22 21 20 19 17 16 14 12 10 10 10 9 9 10 11 10 12 15
8 11 5 5 20 16 10 3 11 18 14 6 11 19 21 20 10 3 3 11 17 19 19 20 21 22 21 22 22 21 21 21 20 18 16 15 13 11 11 11 10 8 8 7 8 9 10 13 14
Wind_Direction
203 199 182 191 234 241 237 213 232 174 200 155 223 192 213 186 181 194 143 165 169 179 185 195 196 195 187 185 182 174 167 168 168 167 168 164 162 160 162 165 165 157 151 142 80 23 174 205 238
185 182 188 233 248 224 221 202 194 186 106 319 227 204 213 202 189 67 154 166 172 180 190 195 195 198 196 191 190 186 178 179 177 174 173 172 172 170 166 162 161 162 167 168 150 136 246 196 208
181 196 234 229 233 243 223 179 195 151 235 260 220 210 193 230 222 206 171 163 174 182 191 196 195 197 201 199 196 193 191 188 187 186 183 183 184 179 177 173 170 170 166 165 173 180 174 237 253
176 206 240 244 235 226 255 81 117 230 290 239 211 191 205 190 184 188 162 169 177 188 194 197 202 202 207 207 203 203 203 198 197 198 195 194 195 192 188 186 182 175 176 181 185 183 197 217 239
192 239 242 233 246 251 249 258 273 277 294 252 208 209 211 193 186 168 165 174 187 196 201 209 209 211 215 215 213 212 212 213 208 208 209 206 205 204 200 199 193 187 187 187 191 199 213 230 244
206 243 235 238 244 250 253 255 259 259 257 248 222 220 199 175 171 161 168 176 186 203 213 219 215 218 222 224 224 221 221 222 222 218 217 216 215 213 209 210 208 204 199 196 203 216 227 244 268
237 223 244 252 248 257 253 256 251 255 262 221 221 207 175 168 165 164 171 179 188 202 212 220 224 224 226 230 233 231 231 231 230 229 226 225 222 220 218 219 219 216 213 209 211 228 236 255 274
227 252 252 248 247 249 256 261 241 241 232 253 219 214 181 166 161 167 177 187 192 204 213 222 229 230 231 234 236 237 237 237 237 236 234 231 229 226 225 225 223 221 219 218 224 231 237 251 278
224 237 244 244 234 242 246 248 249 248 247 206 177 146 114 172 166 171 184 195 202 212 227 236 238 235 236 236 245 242 242 240 241 240 237 235 234 231 228 227 228 227 224 224 233 238 240 253 271
216 226 238 244 249 233 238 240 244 244 223 220 184 139 97 145 159 180 197 207 213 224 236 241 244 248 245 242 241 251 245 244 243 240 239 234 234 232 229 231 229 226 226 229 235 241 245 255 255
226 241 240 246 244 244 251 251 247 240 244 214 200 181 161 187 201 209 221 220 222 229 238 240 252 259 259 254 251 248 253 247 244 242 241 240 234 228 230 222 227 225 226 231 235 242 243 241 237
240 243 242 254 253 246 247 254 253 246 244 235 240 221 269 270 256 247 253 258 258 261 256 223 268 282 277 262 262 259 254 254 247 246 242 237 236 233 225 216 217 224 222 226 221 221 221 229 238
236 244 248 245 250 247 253 251 249 247 245 246 248 253 255 261 265 268 267 266 272 271 242 239 266 273 284 282 265 267 263 259 253 240 244 239 229 230 223 217 213 219 217 225 226 229 230 239 235
244 247 249 253 247 247 245 253 255 247 246 253 255 256 257 256 256 258 259 264 266 264 255 251 265 267 272 274 277 271 272 264 255 241 233 249 232 228 220 219 222 219 219 221 227 232 230 240 249
256 263 259 250 240 241 252 260 248 251 248 252 253 255 257 257 257 259 262 261 259 262 258 251 258 255 270 276 278 271 267 263 250 250 240 241 242 224 224 220 222 221 220 228 228 228 232 237 251
253 250 249 240 232 237 228 257 252 242 244 241 255 256 260 263 262 262 262 260 254 251 254 265 249 262 268 276 273 268 265 259 252 241 236 238 238 226 231 221 224 221 221 229 228 225 240 244 249
238 247 238 252 236 230 217 242 252 258 256 247 245 254 257 261 264 261 257 252 254 261 272 266 258 262 275 274 271 263 258 257 247 236 232 233 230 223 218 220 222 221 219 222 221 230 235 245 246
237 238 245 258 248 226 223 243 245 255 253 250 253 251 254 251 252 256 258 267 267 267 268 265 264 269 269 271 268 255 252 249 243 231 226 226 224 218 220 218 216 222 216 222 223 224 231 232 249
265 268 264 273 261 256 238 241 248 246 252 256 258 253 253 256 263 267 271 269 268 265 272 269 262 259 257 269 263 253 240 240 236 225 226 224 218 216 219 210 219 215 210 212 227 225 224 231 238
260 257 259 257 287 246 246 250 251 247 250 250 252 255 259 264 266 267 268 267 266 267 269 269 261 255 259 267 257 239 238 229 225 218 229 216 210 215 215 205 209 206 203 209 211 212 216 227 233
253 254 256 253 261 239 251 252 251 249 255 254 256 257 260 261 264 265 265 263 263 261 264 265 261 254 255 261 251 247 231 221 218 223 217 206 206 212 212 206 192 202 193 202 202 209 219 234 248
264 249 255 254 250 244 231 254 243 242 244 243 247 249 253 257 258 262 264 263 261 260 257 258 259 250 252 259 247 242 226 217 216 207 209 204 205 204 197 188 189 192 182 197 198 214 226 245 251
261 270 249 243 246 245 244 258 258 256 256 255 251 254 255 258 261 261 261 260 260 258 254 251 255 255 259 257 239 238 204 201 194 183 189 187 182 180 175 175 175 176 177 186 201 219 239 246 230
260 273 256 240 255 249 237 236 253 252 254 253 251 255 254 258 266 266 262 256 249 250 244 243 246 245 243 238 230 220 194 181 172 173 169 166 166 164 168 169 172 178 182 197 220 228 240 222 226
238 238 246 227 231 239 240 231 240 266 313 221 293 264 230 265 267 264 264 246 237 237 229 221 227 226 228 222 213 193 187 180 171 163 155 156 157 161 170 173 175 182 193 203 218 230 215 214 218
229 233 241 242 233 234 225 239 225 232 264 266 255 259 270 272 276 268 273 246 234 224 220 221 217 203 198 185 173 167 167 156 155 150 154 152 158 160 164 170 179 187 197 214 220 212 205 214 215
235 249 261 263 268 276 228 216 249 247 243 233 239 335 328 312 297 285 267 222 208 201 210 188 174 163 157 153 149 148 145 144 152 145 139 145 152 162 163 173 181 192 206 211 207 203 212 214 213
293 248 319 249 257 250 238 212 220 213 228 247 273 2 355 348 330 310 225 183 178 166 147 145 143 143 142 139 140 138 139 142 143 145 145 145 152 158 165 175 188 204 201 202 211 217 218 216 221
272 242 243 247 243 265 227 217 210 214 122 111 32 11 0 1 344 341 177 166 144 141 141 138 139 135 135 136 136 133 135 140 141 142 145 150 156 161 168 181 183 183 190 207 223 228 226 221 224
172 227 228 251 224 250 298 33 122 113 115 71 12 13 360 11 359 347 138 139 143 141 140 136 135 135 137 133 132 133 135 139 141 145 149 157 161 162 162 164 169 179 199 216 228 234 230 229 235